Location: Kaseke
(18.0171°S, 31.0526°E)
Time: 11:40:41
(UTC+00:00)

Cosmos 1707 - Pass Details

Date: 14 July 2020
Orbit: 517 x 529 km, 82.5° (Epoch: 07 August)

Event Time Altitude Azimuth Distance (km) Brightness Sun altitude
Rises 03:24:17 0° 331° (NNW) 2,651 6.2 -14.9°
Reaches altitude 10° 03:26:44 10° 317° (NW) 1,771 5.2 -14.4°
Maximum altitude 03:29:53 23° 262° (W) 1,149 3.8 -13.7°
Enters shadow 03:30:45 22° 242° (WSW) 1,210 3.9 -13.5°
